User: anonymous   Login
Location: Caltech
(34.1382°N, 118.1253°W)
Time: 01:46:17
(UTC-07:00)
Language:

SEDSat Delta rocket - Orbit

View from above orbital plane
View from above orbital plane
View from above satellite
View from above satellite

Ground track
Ground track

The orbit data is extracted from the following two-line orbital elements,

1 25510U 98061C   17144.84645201 +.00000283 +00000-0 +36577-4 0  9999
2 25510 031.4363 274.1384 0328371 234.1105 271.8078 14.37200890974450
Epoch (UTC): 24 May 2017 20:18:53
Eccentricity: 0.0328371
inclination: 31.4363°
perigee height: 533 km
apogee height: 1002 km
right ascension of ascending node: 274.1384°
argument of perigee: 234.1105°
revolutions per day: 14.37200890
mean anomaly at epoch: 271.8078°
orbit number at epoch: 97445

The dashed part of the orbit path shows where the satellite is in the earth's shadow,  

DLR